owner,sensor,date,latitude,longitude,vertical_datum,sea_water_practical_salinity,qcFlag 
SCCF RECON,ioos:station:SCCF:56:1,2019-03-01T05:00:00Z,26.4645,-82.1044,1.45,31.64,1111122 
SCCF RECON,ioos:station:SCCF:56:1,2019-03-01T06:00:00Z,26.4645,-82.1044,1.35,31.77,1111122 
SCCF RECON,ioos:station:SCCF:56:1,2019-03-01T07:00:00Z,26.4645,-82.1044,1.259,31.92,1111122 
SCCF RECON,ioos:station:SCCF:56:1,2019-03-01T08:00:00Z,26.4645,-82.1044,1.16,32.04,1111122 
SCCF RECON,ioos:station:SCCF:56:1,2019-03-01T09:00:00Z,26.4645,-82.1044,1.08,32.1,1111122 
SCCF RECON,ioos:station:SCCF:56:1,2019-03-01T10:00:00Z,26.4645,-82.1044,1.06,32.05,1111122 
SCCF RECON,ioos:station:SCCF:56:1,2019-03-01T11:00:00Z,26.4645,-82.1044,1.13,32.06,1111122 
SCCF RECON,ioos:station:SCCF:56:1,2019-03-01T12:00:00Z,26.4645,-82.1044,1.26,31.83,1111122 
SCCF RECON,ioos:station:SCCF:56:1,2019-03-01T13:00:00Z,26.4645,-82.1044,1.372,31.76,1111122 
SCCF RECON,ioos:station:SCCF:56:1,2019-03-01T14:00:00Z,26.4645,-82.1044,1.47,31.67,1111122 
SCCF RECON,ioos:station:SCCF:56:1,2019-03-01T15:00:00Z,26.4645,-82.1044,1.55,31.7,1111122 
SCCF RECON,ioos:station:SCCF:56:1,2019-03-01T16:00:00Z,26.4645,-82.1044,1.61,31.57,1111122 
SCCF RECON,ioos:station:SCCF:56:1,2019-03-01T17:00:00Z,26.4645,-82.1044,1.63,31.54,1111122 
SCCF RECON,ioos:station:SCCF:56:1,2019-03-01T18:00:00Z,26.4645,-82.1044,1.61,31.71,1111122 
SCCF RECON,ioos:station:SCCF:56:1,2019-03-01T19:00:00Z,26.4645,-82.1044,1.556,31.62,1111122 
SCCF RECON,ioos:station:SCCF:56:1,2019-03-01T20:00:00Z,26.4645,-82.1044,1.51,31.64,1111122 
SCCF RECON,ioos:station:SCCF:56:1,2019-03-01T21:00:00Z,26.4645,-82.1044,1.49,31.65,1111122 
SCCF RECON,ioos:station:SCCF:56:1,2019-03-01T22:00:00Z,26.4645,-82.1044,1.488,31.67,1111122 
SCCF RECON,ioos:station:SCCF:56:1,2019-03-01T23:00:00Z,26.4645,-82.1044,1.57,31.7,1111122 
SCCF RECON,ioos:station:SCCF:56:1,2019-03-02T05:00:00Z,26.4645,-82.1044,1.634,31.45,1111122 
SCCF RECON,ioos:station:SCCF:56:1,2019-03-02T06:00:00Z,26.4645,-82.1044,1.53,31.65,1111122 
SCCF RECON,ioos:station:SCCF:56:1,2019-03-02T07:00:00Z,26.4645,-82.1044,1.406,31.79,1111122 
SCCF RECON,ioos:station:SCCF:56:1,2019-03-02T08:00:00Z,26.4645,-82.1044,1.28,31.88,1111122 
SCCF RECON,ioos:station:SCCF:56:1,2019-03-02T09:00:00Z,26.4645,-82.1044,1.16,31.96,1111122 
SCCF RECON,ioos:station:SCCF:56:1,2019-03-02T10:00:00Z,26.4645,-82.1044,1.07,32.03,1111122 
SCCF RECON,ioos:station:SCCF:56:1,2019-03-02T11:00:00Z,26.4645,-82.1044,1.08,32.08,1111122 
SCCF RECON,ioos:station:SCCF:56:1,2019-03-02T12:00:00Z,26.4645,-82.1044,1.17,31.68,1111122 
SCCF RECON,ioos:station:SCCF:56:1,2019-03-02T13:00:00Z,26.4645,-82.1044,1.307,30.9,1111122 
SCCF RECON,ioos:station:SCCF:56:1,2019-03-02T14:00:00Z,26.4645,-82.1044,1.41,30.9,1111122 
SCCF RECON,ioos:station:SCCF:56:1,2019-03-02T15:00:00Z,26.4645,-82.1044,1.49,30.79,1111122 
SCCF RECON,ioos:station:SCCF:56:1,2019-03-02T16:00:00Z,26.4645,-82.1044,1.569,30.83,1111122 
SCCF RECON,ioos:station:SCCF:56:1,2019-03-02T17:00:00Z,26.4645,-82.1044,1.63,30.9,1111122 
SCCF RECON,ioos:station:SCCF:56:1,2019-03-02T18:00:00Z,26.4645,-82.1044,1.63,30.87,1111122 
SCCF RECON,ioos:station:SCCF:56:1,2019-03-02T19:00:00Z,26.4645,-82.1044,1.56,30.97,1111122 
SCCF RECON,ioos:station:SCCF:56:1,2019-03-02T20:00:00Z,26.4645,-82.1044,1.48,30.91,1111122 
SCCF RECON,ioos:station:SCCF:56:1,2019-03-02T21:00:00Z,26.4645,-82.1044,1.43,31.05,1111122 
SCCF RECON,ioos:station:SCCF:56:1,2019-03-02T22:00:00Z,26.4645,-82.1044,1.4,31.23,1111122 
SCCF RECON,ioos:station:SCCF:56:1,2019-03-02T23:00:00Z,26.4645,-82.1044,1.443,31.36,1111122 
SCCF RECON,ioos:station:SCCF:56:1,2019-03-03T05:00:00Z,26.4645,-82.1044,1.67,31.6,1111122 
SCCF RECON,ioos:station:SCCF:56:1,2019-03-03T06:00:00Z,26.4645,-82.1044,1.588,31.62,1111122 
SCCF RECON,ioos:station:SCCF:56:1,2019-03-03T07:00:00Z,26.4645,-82.1044,1.46,31.7,1111122 
SCCF RECON,ioos:station:SCCF:56:1,2019-03-03T08:00:00Z,26.4645,-82.1044,1.31,31.93,1111122 
SCCF RECON,ioos:station:SCCF:56:1,2019-03-03T09:00:00Z,26.4645,-82.1044,1.2,32.17,1111122 
SCCF RECON,ioos:station:SCCF:56:1,2019-03-03T10:00:00Z,26.4645,-82.1044,1.101,32.39,1111122 
SCCF RECON,ioos:station:SCCF:56:1,2019-03-03T11:00:00Z,26.4645,-82.1044,1.04,32.53,1111122 
SCCF RECON,ioos:station:SCCF:56:1,2019-03-03T12:00:00Z,26.4645,-82.1044,1.04,32.59,1111122 
SCCF RECON,ioos:station:SCCF:56:1,2019-03-03T13:00:00Z,26.4645,-82.1044,1.17,31.99,1111122 
SCCF RECON,ioos:station:SCCF:56:1,2019-03-03T14:00:00Z,26.4645,-82.1044,1.32,31.9,1111122 
SCCF RECON,ioos:station:SCCF:56:1,2019-03-03T15:00:00Z,26.4645,-82.1044,1.44,31.95,1111122 
SCCF RECON,ioos:station:SCCF:56:1,2019-03-03T16:00:00Z,26.4645,-82.1044,1.55,31.94,1111122 
SCCF RECON,ioos:station:SCCF:56:1,2019-03-03T17:00:00Z,26.4645,-82.1044,1.62,31.93,1111122 
SCCF RECON,ioos:station:SCCF:56:1,2019-03-03T18:00:00Z,26.4645,-82.1044,1.61,31.9,1111122 
SCCF RECON,ioos:station:SCCF:56:1,2019-03-03T19:00:00Z,26.4645,-82.1044,1.548,31.82,1111122 
SCCF RECON,ioos:station:SCCF:56:1,2019-03-03T20:00:00Z,26.4645,-82.1044,1.461,31.85,1111122 
SCCF RECON,ioos:station:SCCF:56:1,2019-03-03T21:00:00Z,26.4645,-82.1044,1.402,31.9,1111122 
SCCF RECON,ioos:station:SCCF:56:1,2019-03-03T22:00:00Z,26.4645,-82.1044,1.37,31.98,1111122 
SCCF RECON,ioos:station:SCCF:56:1,2019-03-03T23:00:00Z,26.4645,-82.1044,1.4,31.98,1111122 
SCCF RECON,ioos:station:SCCF:56:1,2019-03-04T05:00:00Z,26.4645,-82.1044,1.82,32.05,1111122 
SCCF RECON,ioos:station:SCCF:56:1,2019-03-04T06:00:00Z,26.4645,-82.1044,1.74,32.05,1111122 
SCCF RECON,ioos:station:SCCF:56:1,2019-03-04T07:00:00Z,26.4645,-82.1044,1.6,32.12,1111122 
SCCF RECON,ioos:station:SCCF:56:1,2019-03-04T08:00:00Z,26.4645,-82.1044,1.45,32.22,1111122 
SCCF RECON,ioos:station:SCCF:56:1,2019-03-04T09:00:00Z,26.4645,-82.1044,1.34,32.35,1111122 
SCCF RECON,ioos:station:SCCF:56:1,2019-03-04T10:00:00Z,26.4645,-82.1044,1.25,32.45,1111122 
SCCF RECON,ioos:station:SCCF:56:1,2019-03-04T11:00:00Z,26.4645,-82.1044,1.16,32.53,1111122 
SCCF RECON,ioos:station:SCCF:56:1,2019-03-04T12:00:00Z,26.4645,-82.1044,1.11,32.61,1111122 
SCCF RECON,ioos:station:SCCF:56:1,2019-03-04T13:00:00Z,26.4645,-82.1044,1.161,32.65,1111122 
SCCF RECON,ioos:station:SCCF:56:1,2019-03-04T14:00:00Z,26.4645,-82.1044,1.32,32.54,1111122 
SCCF RECON,ioos:station:SCCF:56:1,2019-03-04T15:00:00Z,26.4645,-82.1044,1.45,32.39,1111122 
SCCF RECON,ioos:station:SCCF:56:1,2019-03-04T16:00:00Z,26.4645,-82.1044,1.559,32.31,1111122 
SCCF RECON,ioos:station:SCCF:56:1,2019-03-04T17:00:00Z,26.4645,-82.1044,1.64,32.26,1111122 
SCCF RECON,ioos:station:SCCF:56:1,2019-03-04T18:00:00Z,26.4645,-82.1044,1.67,32.19,1111122 
SCCF RECON,ioos:station:SCCF:56:1,2019-03-04T19:00:00Z,26.4645,-82.1044,1.627,32.17,1111122 
SCCF RECON,ioos:station:SCCF:56:1,2019-03-04T20:00:00Z,26.4645,-82.1044,1.51,32.25,1111122 
SCCF RECON,ioos:station:SCCF:56:1,2019-03-04T21:00:00Z,26.4645,-82.1044,1.43,32.34,1111122 
SCCF RECON,ioos:station:SCCF:56:1,2019-03-04T22:00:00Z,26.4645,-82.1044,1.37,32.44,1111122 
SCCF RECON,ioos:station:SCCF:56:1,2019-03-04T23:00:00Z,26.4645,-82.1044,1.31,32.55,1111122 
SCCF RECON,ioos:station:SCCF:56:1,2019-03-05T05:00:00Z,26.4645,-82.1044,1.74,32.53,1111122 
SCCF RECON,ioos:station:SCCF:56:1,2019-03-05T06:00:00Z,26.4645,-82.1044,1.705,32.56,1111122 
SCCF RECON,ioos:station:SCCF:56:1,2019-03-05T07:00:00Z,26.4645,-82.1044,1.596,32.67,1111122 
SCCF RECON,ioos:station:SCCF:56:1,2019-03-05T08:00:00Z,26.4645,-82.1044,1.45,32.78,1111122 
SCCF RECON,ioos:station:SCCF:56:1,2019-03-05T09:00:00Z,26.4645,-82.1044,1.33,32.91,1111122 
SCCF RECON,ioos:station:SCCF:56:1,2019-03-05T10:00:00Z,26.4645,-82.1044,1.242,33.03,1111122 
SCCF RECON,ioos:station:SCCF:56:1,2019-03-05T11:00:00Z,26.4645,-82.1044,1.15,33.14,1111122 
SCCF RECON,ioos:station:SCCF:56:1,2019-03-05T12:00:00Z,26.4645,-82.1044,1.07,33.29,1111122 
SCCF RECON,ioos:station:SCCF:56:1,2019-03-05T13:00:00Z,26.4645,-82.1044,1.05,33.34,1111122 
SCCF RECON,ioos:station:SCCF:56:1,2019-03-05T14:00:00Z,26.4645,-82.1044,1.17,33.29,1111122 
SCCF RECON,ioos:station:SCCF:56:1,2019-03-05T15:00:00Z,26.4645,-82.1044,1.34,33.09,1111122 
SCCF RECON,ioos:station:SCCF:56:1,2019-03-05T16:00:00Z,26.4645,-82.1044,1.5,33.03,1111122 
SCCF RECON,ioos:station:SCCF:56:1,2019-03-05T17:00:00Z,26.4645,-82.1044,1.612,33.02,1111122 
SCCF RECON,ioos:station:SCCF:56:1,2019-03-05T18:00:00Z,26.4645,-82.1044,1.69,33.01,1111122 
SCCF RECON,ioos:station:SCCF:56:1,2019-03-05T19:00:00Z,26.4645,-82.1044,1.62,32.94,1111122 
SCCF RECON,ioos:station:SCCF:56:1,2019-03-05T20:00:00Z,26.4645,-82.1044,1.456,33.04,1111122 
SCCF RECON,ioos:station:SCCF:56:1,2019-03-05T21:00:00Z,26.4645,-82.1044,1.342,33.16,1111122 
SCCF RECON,ioos:station:SCCF:56:1,2019-03-05T23:00:00Z,26.4645,-82.1044,1.29,33.31,1111122 
SCCF RECON,ioos:station:SCCF:56:1,2019-03-06T05:00:00Z,26.4645,-82.1044,1.64,33.5,1111122 
SCCF RECON,ioos:station:SCCF:56:1,2019-03-06T06:00:00Z,26.4645,-82.1044,1.7,33.57,1111122 
SCCF RECON,ioos:station:SCCF:56:1,2019-03-06T07:00:00Z,26.4645,-82.1044,1.6,33.68,1111122 
SCCF RECON,ioos:station:SCCF:56:1,2019-03-06T08:00:00Z,26.4645,-82.1044,1.46,33.65,1111122 
SCCF RECON,ioos:station:SCCF:56:1,2019-03-06T09:00:00Z,26.4645,-82.1044,1.338,33.66,1111122 
SCCF RECON,ioos:station:SCCF:56:1,2019-03-06T10:00:00Z,26.4645,-82.1044,1.228,33.79,1111122 
SCCF RECON,ioos:station:SCCF:56:1,2019-03-06T11:00:00Z,26.4645,-82.1044,1.13,33.86,1111122 
SCCF RECON,ioos:station:SCCF:56:1,2019-03-06T12:00:00Z,26.4645,-82.1044,1.008,34.04,1111122 
SCCF RECON,ioos:station:SCCF:56:1,2019-03-06T13:00:00Z,26.4645,-82.1044,0.934,34.15,1111122 
SCCF RECON,ioos:station:SCCF:56:1,2019-03-06T14:00:00Z,26.4645,-82.1044,0.92,34.25,1111122 
SCCF RECON,ioos:station:SCCF:56:1,2019-03-06T15:00:00Z,26.4645,-82.1044,1.021,34.23,1111122 
SCCF RECON,ioos:station:SCCF:56:1,2019-03-06T16:00:00Z,26.4645,-82.1044,1.209,34.02,1111122 
SCCF RECON,ioos:station:SCCF:56:1,2019-03-06T17:00:00Z,26.4645,-82.1044,1.37,34.06,1111122 
SCCF RECON,ioos:station:SCCF:56:1,2019-03-06T18:00:00Z,26.4645,-82.1044,1.45,34.07,1111122 
SCCF RECON,ioos:station:SCCF:56:1,2019-03-06T19:00:00Z,26.4645,-82.1044,1.49,33.82,1111122 
SCCF RECON,ioos:station:SCCF:56:1,2019-03-06T20:00:00Z,26.4645,-82.1044,1.45,34.01,1111122 
SCCF RECON,ioos:station:SCCF:56:1,2019-03-06T21:00:00Z,26.4645,-82.1044,1.352,33.98,1111122 
SCCF RECON,ioos:station:SCCF:56:1,2019-03-06T22:00:00Z,26.4645,-82.1044,1.276,34.07,1111122 
SCCF RECON,ioos:station:SCCF:56:1,2019-03-06T23:00:00Z,26.4645,-82.1044,1.23,34.12,1111122 
SCCF RECON,ioos:station:SCCF:56:1,2019-03-07T05:00:00Z,26.4645,-82.1044,1.69,32.83,1111122 
SCCF RECON,ioos:station:SCCF:56:1,2019-03-07T06:00:00Z,26.4645,-82.1044,1.74,32.91,1111122 
SCCF RECON,ioos:station:SCCF:56:1,2019-03-07T07:00:00Z,26.4645,-82.1044,1.709,33.01,1111122 
SCCF RECON,ioos:station:SCCF:56:1,2019-03-07T08:00:00Z,26.4645,-82.1044,1.59,33.03,1111122 
SCCF RECON,ioos:station:SCCF:56:1,2019-03-07T09:00:00Z,26.4645,-82.1044,1.461,33.23,1111122 
SCCF RECON,ioos:station:SCCF:56:1,2019-03-07T10:00:00Z,26.4645,-82.1044,1.36,33.51,1111122 
SCCF RECON,ioos:station:SCCF:56:1,2019-03-07T11:00:00Z,26.4645,-82.1044,1.27,33.86,1111122 
SCCF RECON,ioos:station:SCCF:56:1,2019-03-07T12:00:00Z,26.4645,-82.1044,1.19,34.07,1111122 
SCCF RECON,ioos:station:SCCF:56:1,2019-03-07T13:00:00Z,26.4645,-82.1044,1.15,34.19,1111122 
SCCF RECON,ioos:station:SCCF:56:1,2019-03-07T14:00:00Z,26.4645,-82.1044,1.153,34.17,1111122 
SCCF RECON,ioos:station:SCCF:56:1,2019-03-07T15:00:00Z,26.4645,-82.1044,1.284,33.11,1111122 
SCCF RECON,ioos:station:SCCF:56:1,2019-03-07T16:00:00Z,26.4645,-82.1044,1.441,33.09,1111122 
SCCF RECON,ioos:station:SCCF:56:1,2019-03-07T17:00:00Z,26.4645,-82.1044,1.55,33.17,1111122 
SCCF RECON,ioos:station:SCCF:56:1,2019-03-07T18:00:00Z,26.4645,-82.1044,1.64,33.14,1111122 
SCCF RECON,ioos:station:SCCF:56:1,2019-03-07T19:00:00Z,26.4645,-82.1044,1.67,33.09,1111122 
SCCF RECON,ioos:station:SCCF:56:1,2019-03-07T20:00:00Z,26.4645,-82.1044,1.64,33.04,1111122 
SCCF RECON,ioos:station:SCCF:56:1,2019-03-07T21:00:00Z,26.4645,-82.1044,1.54,33.15,1111122 
SCCF RECON,ioos:station:SCCF:56:1,2019-03-07T22:00:00Z,26.4645,-82.1044,1.43,33.07,1111122 
SCCF RECON,ioos:station:SCCF:56:1,2019-03-07T23:00:00Z,26.4645,-82.1044,1.34,33.26,1111122 
SCCF RECON,ioos:station:SCCF:56:1,2019-03-08T05:00:00Z,26.4645,-82.1044,1.69,32.73,1111122 
SCCF RECON,ioos:station:SCCF:56:1,2019-03-08T06:00:00Z,26.4645,-82.1044,1.748,32.48,1111122 
SCCF RECON,ioos:station:SCCF:56:1,2019-03-08T07:00:00Z,26.4645,-82.1044,1.77,32.36,1111122 
SCCF RECON,ioos:station:SCCF:56:1,2019-03-08T08:00:00Z,26.4645,-82.1044,1.712,32.41,1111122 
SCCF RECON,ioos:station:SCCF:56:1,2019-03-08T09:00:00Z,26.4645,-82.1044,1.58,32.54,1111122 
SCCF RECON,ioos:station:SCCF:56:1,2019-03-08T10:00:00Z,26.4645,-82.1044,1.46,32.76,1111122 
SCCF RECON,ioos:station:SCCF:56:1,2019-03-08T11:00:00Z,26.4645,-82.1044,1.35,33.04,1111122 
SCCF RECON,ioos:station:SCCF:56:1,2019-03-08T12:00:00Z,26.4645,-82.1044,1.26,33.31,1111122 
SCCF RECON,ioos:station:SCCF:56:1,2019-03-08T13:00:00Z,26.4645,-82.1044,1.214,33.44,1111122 
SCCF RECON,ioos:station:SCCF:56:1,2019-03-08T14:00:00Z,26.4645,-82.1044,1.23,33.5,1111122 
SCCF RECON,ioos:station:SCCF:56:1,2019-03-08T16:00:00Z,26.4645,-82.1044,1.511,32.52,1111122 
SCCF RECON,ioos:station:SCCF:56:1,2019-03-08T17:00:00Z,26.4645,-82.1044,1.641,32.4,1111122 
SCCF RECON,ioos:station:SCCF:56:1,2019-03-08T18:00:00Z,26.4645,-82.1044,1.72,32.32,1111122 
SCCF RECON,ioos:station:SCCF:56:1,2019-03-08T19:00:00Z,26.4645,-82.1044,1.756,32.36,1111122 
SCCF RECON,ioos:station:SCCF:56:1,2019-03-08T20:00:00Z,26.4645,-82.1044,1.75,32.33,1111122 
SCCF RECON,ioos:station:SCCF:56:1,2019-03-08T21:00:00Z,26.4645,-82.1044,1.659,32.3,1111122 
SCCF RECON,ioos:station:SCCF:56:1,2019-03-08T22:00:00Z,26.4645,-82.1044,1.519,32.39,1111122 
SCCF RECON,ioos:station:SCCF:56:1,2019-03-08T23:00:00Z,26.4645,-82.1044,1.42,32.55,1111122 
SCCF RECON,ioos:station:SCCF:56:1,2019-03-09T05:00:00Z,26.4645,-82.1044,1.594,32.39,1111122 
SCCF RECON,ioos:station:SCCF:56:1,2019-03-09T06:00:00Z,26.4645,-82.1044,1.69,32.53,1111122 
SCCF RECON,ioos:station:SCCF:56:1,2019-03-09T07:00:00Z,26.4645,-82.1044,1.76,32.47,1111122 
SCCF RECON,ioos:station:SCCF:56:1,2019-03-09T08:00:00Z,26.4645,-82.1044,1.76,32.31,1111122 
SCCF RECON,ioos:station:SCCF:56:1,2019-03-09T09:00:00Z,26.4645,-82.1044,1.66,32.38,1111122 
SCCF RECON,ioos:station:SCCF:56:1,2019-03-09T10:00:00Z,26.4645,-82.1044,1.53,32.46,1111122 
SCCF RECON,ioos:station:SCCF:56:1,2019-03-09T11:00:00Z,26.4645,-82.1044,1.419,32.6,1111122 
SCCF RECON,ioos:station:SCCF:56:1,2019-03-09T12:00:00Z,26.4645,-82.1044,1.33,32.8,1111122 
SCCF RECON,ioos:station:SCCF:56:1,2019-03-09T13:00:00Z,26.4645,-82.1044,1.262,32.94,1111122 
SCCF RECON,ioos:station:SCCF:56:1,2019-03-09T14:00:00Z,26.4645,-82.1044,1.22,33.0,1111122 
SCCF RECON,ioos:station:SCCF:56:1,2019-03-09T15:00:00Z,26.4645,-82.1044,1.29,32.9,1111122 
SCCF RECON,ioos:station:SCCF:56:1,2019-03-09T16:00:00Z,26.4645,-82.1044,1.45,32.69,1111122 
SCCF RECON,ioos:station:SCCF:56:1,2019-03-09T17:00:00Z,26.4645,-82.1044,1.595,32.46,1111122 
SCCF RECON,ioos:station:SCCF:56:1,2019-03-09T18:00:00Z,26.4645,-82.1044,1.697,32.41,1111122 
SCCF RECON,ioos:station:SCCF:56:1,2019-03-09T19:00:00Z,26.4645,-82.1044,1.761,32.42,1111122 
SCCF RECON,ioos:station:SCCF:56:1,2019-03-09T20:00:00Z,26.4645,-82.1044,1.77,32.43,1111122 
SCCF RECON,ioos:station:SCCF:56:1,2019-03-09T21:00:00Z,26.4645,-82.1044,1.72,32.32,1111122 
SCCF RECON,ioos:station:SCCF:56:1,2019-03-09T22:00:00Z,26.4645,-82.1044,1.61,32.34,1111122 
SCCF RECON,ioos:station:SCCF:56:1,2019-03-09T23:00:00Z,26.4645,-82.1044,1.49,32.45,1111122 
SCCF RECON,ioos:station:SCCF:56:1,2019-03-10T05:00:00Z,26.4645,-82.1044,1.54,32.64,1111122 
SCCF RECON,ioos:station:SCCF:56:1,2019-03-10T06:00:00Z,26.4645,-82.1044,1.663,32.6,1111122 
SCCF RECON,ioos:station:SCCF:56:1,2019-03-10T07:00:00Z,26.4645,-82.1044,1.74,32.58,1111122 
SCCF RECON,ioos:station:SCCF:56:1,2019-03-10T08:00:00Z,26.4645,-82.1044,1.779,32.56,1111122 
SCCF RECON,ioos:station:SCCF:56:1,2019-03-10T09:00:00Z,26.4645,-82.1044,1.76,32.47,1111122 
SCCF RECON,ioos:station:SCCF:56:1,2019-03-10T10:00:00Z,26.4645,-82.1044,1.67,32.54,1111122 
SCCF RECON,ioos:station:SCCF:56:1,2019-03-10T11:00:00Z,26.4645,-82.1044,1.57,32.61,1111122 
SCCF RECON,ioos:station:SCCF:56:1,2019-03-10T12:00:00Z,26.4645,-82.1044,1.5,32.71,1111122 
SCCF RECON,ioos:station:SCCF:56:1,2019-03-10T13:00:00Z,26.4645,-82.1044,1.416,32.79,1111122 
SCCF RECON,ioos:station:SCCF:56:1,2019-03-10T14:00:00Z,26.4645,-82.1044,1.36,32.84,1111122 
SCCF RECON,ioos:station:SCCF:56:1,2019-03-10T15:00:00Z,26.4645,-82.1044,1.37,32.86,1111122 
SCCF RECON,ioos:station:SCCF:56:1,2019-03-10T16:00:00Z,26.4645,-82.1044,1.5,32.72,1111122 
SCCF RECON,ioos:station:SCCF:56:1,2019-03-10T17:00:00Z,26.4645,-82.1044,1.64,32.6,1111122 
SCCF RECON,ioos:station:SCCF:56:1,2019-03-10T18:00:00Z,26.4645,-82.1044,1.74,32.55,1111122 
SCCF RECON,ioos:station:SCCF:56:1,2019-03-10T19:00:00Z,26.4645,-82.1044,1.8,32.56,1111122 
SCCF RECON,ioos:station:SCCF:56:1,2019-03-10T20:00:00Z,26.4645,-82.1044,1.81,32.56,1111122 
SCCF RECON,ioos:station:SCCF:56:1,2019-03-10T21:00:00Z,26.4645,-82.1044,1.77,32.5,1111122 
SCCF RECON,ioos:station:SCCF:56:1,2019-03-10T22:00:00Z,26.4645,-82.1044,1.69,32.54,1111122 
SCCF RECON,ioos:station:SCCF:56:1,2019-03-11T04:00:00Z,26.4645,-82.1044,1.243,33.0,1111122 
SCCF RECON,ioos:station:SCCF:56:1,2019-03-11T05:00:00Z,26.4645,-82.1044,1.37,32.89,1111122 
SCCF RECON,ioos:station:SCCF:56:1,2019-03-11T06:00:00Z,26.4645,-82.1044,1.507,32.82,1111122 
SCCF RECON,ioos:station:SCCF:56:1,2019-03-11T07:00:00Z,26.4645,-82.1044,1.6,32.82,1111122 
SCCF RECON,ioos:station:SCCF:56:1,2019-03-11T08:00:00Z,26.4645,-82.1044,1.67,32.81,1111122 
SCCF RECON,ioos:station:SCCF:56:1,2019-03-11T09:00:00Z,26.4645,-82.1044,1.7,32.76,1111122 
SCCF RECON,ioos:station:SCCF:56:1,2019-03-11T10:00:00Z,26.4645,-82.1044,1.67,32.73,1111122 
SCCF RECON,ioos:station:SCCF:56:1,2019-03-11T11:00:00Z,26.4645,-82.1044,1.58,32.75,1111122 
SCCF RECON,ioos:station:SCCF:56:1,2019-03-11T12:00:00Z,26.4645,-82.1044,1.499,32.82,1111122 
SCCF RECON,ioos:station:SCCF:56:1,2019-03-11T13:00:00Z,26.4645,-82.1044,1.437,32.88,1111122 
SCCF RECON,ioos:station:SCCF:56:1,2019-03-11T14:00:00Z,26.4645,-82.1044,1.39,32.96,1111122 
SCCF RECON,ioos:station:SCCF:56:1,2019-03-11T15:00:00Z,26.4645,-82.1044,1.39,32.97,1111122 
SCCF RECON,ioos:station:SCCF:56:1,2019-03-11T16:00:00Z,26.4645,-82.1044,1.46,32.87,1111122 
SCCF RECON,ioos:station:SCCF:56:1,2019-03-11T17:00:00Z,26.4645,-82.1044,1.56,32.81,1111122 
SCCF RECON,ioos:station:SCCF:56:1,2019-03-11T18:00:00Z,26.4645,-82.1044,1.66,32.84,1111122 
SCCF RECON,ioos:station:SCCF:56:1,2019-03-11T19:00:00Z,26.4645,-82.1044,1.74,32.91,1111122 
SCCF RECON,ioos:station:SCCF:56:1,2019-03-11T20:00:00Z,26.4645,-82.1044,1.8,32.98,1111122 
SCCF RECON,ioos:station:SCCF:56:1,2019-03-11T21:00:00Z,26.4645,-82.1044,1.793,32.96,1111122 
SCCF RECON,ioos:station:SCCF:56:1,2019-03-11T22:00:00Z,26.4645,-82.1044,1.71,32.94,1111122 
SCCF RECON,ioos:station:SCCF:56:1,2019-03-11T23:00:00Z,26.4645,-82.1044,1.6,32.92,1111122 
SCCF RECON,ioos:station:SCCF:56:1,2019-03-12T04:00:00Z,26.4645,-82.1044,1.17,33.27,1111122 
SCCF RECON,ioos:station:SCCF:56:1,2019-03-12T05:00:00Z,26.4645,-82.1044,1.2,33.27,1111122 
SCCF RECON,ioos:station:SCCF:56:1,2019-03-12T06:00:00Z,26.4645,-82.1044,1.312,33.17,1111122 
SCCF RECON,ioos:station:SCCF:56:1,2019-03-12T07:00:00Z,26.4645,-82.1044,1.42,33.06,1111122 
SCCF RECON,ioos:station:SCCF:56:1,2019-03-12T08:00:00Z,26.4645,-82.1044,1.5,33.06,1111122 
SCCF RECON,ioos:station:SCCF:56:1,2019-03-12T09:00:00Z,26.4645,-82.1044,1.57,33.05,1111122 
SCCF RECON,ioos:station:SCCF:56:1,2019-03-12T10:00:00Z,26.4645,-82.1044,1.61,33.07,1111122 
SCCF RECON,ioos:station:SCCF:56:1,2019-03-12T11:00:00Z,26.4645,-82.1044,1.55,33.09,1111122 
SCCF RECON,ioos:station:SCCF:56:1,2019-03-12T12:00:00Z,26.4645,-82.1044,1.48,33.1,1111122 
SCCF RECON,ioos:station:SCCF:56:1,2019-03-12T13:00:00Z,26.4645,-82.1044,1.43,33.13,1111122 
SCCF RECON,ioos:station:SCCF:56:1,2019-03-12T14:00:00Z,26.4645,-82.1044,1.39,33.17,1111122 
SCCF RECON,ioos:station:SCCF:56:1,2019-03-12T15:00:00Z,26.4645,-82.1044,1.379,33.2,1111122 
SCCF RECON,ioos:station:SCCF:56:1,2019-03-12T16:00:00Z,26.4645,-82.1044,1.39,33.21,1111122 
SCCF RECON,ioos:station:SCCF:56:1,2019-03-12T17:00:00Z,26.4645,-82.1044,1.45,33.1,1111122 
SCCF RECON,ioos:station:SCCF:56:1,2019-03-12T18:00:00Z,26.4645,-82.1044,1.55,33.06,1111122 
SCCF RECON,ioos:station:SCCF:56:1,2019-03-12T19:00:00Z,26.4645,-82.1044,1.635,33.03,1111122 
SCCF RECON,ioos:station:SCCF:56:1,2019-03-12T20:00:00Z,26.4645,-82.1044,1.69,33.07,1111122 
SCCF RECON,ioos:station:SCCF:56:1,2019-03-12T21:00:00Z,26.4645,-82.1044,1.73,33.09,1111122 
SCCF RECON,ioos:station:SCCF:56:1,2019-03-12T22:00:00Z,26.4645,-82.1044,1.73,33.1,1111122 
SCCF RECON,ioos:station:SCCF:56:1,2019-03-12T23:00:00Z,26.4645,-82.1044,1.69,33.13,1111122 
SCCF RECON,ioos:station:SCCF:56:1,2019-03-13T04:00:00Z,26.4645,-82.1044,1.18,33.59,1111122 
SCCF RECON,ioos:station:SCCF:56:1,2019-03-13T05:00:00Z,26.4645,-82.1044,1.13,33.65,1111122 
SCCF RECON,ioos:station:SCCF:56:1,2019-03-13T06:00:00Z,26.4645,-82.1044,1.15,33.69,1111122 
SCCF RECON,ioos:station:SCCF:56:1,2019-03-13T07:00:00Z,26.4645,-82.1044,1.25,33.39,1111122 
SCCF RECON,ioos:station:SCCF:56:1,2019-03-13T08:00:00Z,26.4645,-82.1044,1.36,33.37,1111122 
SCCF RECON,ioos:station:SCCF:56:1,2019-03-13T09:00:00Z,26.4645,-82.1044,1.44,33.38,1111122 
SCCF RECON,ioos:station:SCCF:56:1,2019-03-13T10:00:00Z,26.4645,-82.1044,1.5,33.26,1111122 
SCCF RECON,ioos:station:SCCF:56:1,2019-03-13T11:00:00Z,26.4645,-82.1044,1.53,33.21,1111122 
SCCF RECON,ioos:station:SCCF:56:1,2019-03-13T12:00:00Z,26.4645,-82.1044,1.545,33.21,1111122 
SCCF RECON,ioos:station:SCCF:56:1,2019-03-13T13:00:00Z,26.4645,-82.1044,1.53,33.24,1111122 
SCCF RECON,ioos:station:SCCF:56:1,2019-03-13T14:00:00Z,26.4645,-82.1044,1.51,33.25,1111122 
SCCF RECON,ioos:station:SCCF:56:1,2019-03-13T15:00:00Z,26.4645,-82.1044,1.505,33.25,1111122 
SCCF RECON,ioos:station:SCCF:56:1,2019-03-13T16:00:00Z,26.4645,-82.1044,1.5,33.27,1111122 
SCCF RECON,ioos:station:SCCF:56:1,2019-03-13T17:00:00Z,26.4645,-82.1044,1.5,33.28,1111122 
SCCF RECON,ioos:station:SCCF:56:1,2019-03-13T18:00:00Z,26.4645,-82.1044,1.56,33.26,1111122 
SCCF RECON,ioos:station:SCCF:56:1,2019-03-13T19:00:00Z,26.4645,-82.1044,1.65,33.26,1111122 
SCCF RECON,ioos:station:SCCF:56:1,2019-03-13T20:00:00Z,26.4645,-82.1044,1.75,33.29,1111122 
SCCF RECON,ioos:station:SCCF:56:1,2019-03-13T21:00:00Z,26.4645,-82.1044,1.8,33.16,1111122 
SCCF RECON,ioos:station:SCCF:56:1,2019-03-13T22:00:00Z,26.4645,-82.1044,1.828,33.14,1111122 
SCCF RECON,ioos:station:SCCF:56:1,2019-03-13T23:00:00Z,26.4645,-82.1044,1.81,33.14,1111122 
SCCF RECON,ioos:station:SCCF:56:1,2019-03-14T04:00:00Z,26.4645,-82.1044,1.33,33.63,1111122 
SCCF RECON,ioos:station:SCCF:56:1,2019-03-14T05:00:00Z,26.4645,-82.1044,1.22,33.71,1111122 
SCCF RECON,ioos:station:SCCF:56:1,2019-03-14T06:00:00Z,26.4645,-82.1044,1.15,33.82,1111122 
SCCF RECON,ioos:station:SCCF:56:1,2019-03-14T07:00:00Z,26.4645,-82.1044,1.16,33.91,1111122 
SCCF RECON,ioos:station:SCCF:56:1,2019-03-14T08:00:00Z,26.4645,-82.1044,1.241,33.88,1111122 
SCCF RECON,ioos:station:SCCF:56:1,2019-03-14T09:00:00Z,26.4645,-82.1044,1.32,33.4,1111122 
SCCF RECON,ioos:station:SCCF:56:1,2019-03-14T10:00:00Z,26.4645,-82.1044,1.42,33.23,1111122 
SCCF RECON,ioos:station:SCCF:56:1,2019-03-14T11:00:00Z,26.4645,-82.1044,1.488,33.08,1111122 
SCCF RECON,ioos:station:SCCF:56:1,2019-03-14T12:00:00Z,26.4645,-82.1044,1.58,33.06,1111122 
SCCF RECON,ioos:station:SCCF:56:1,2019-03-14T13:00:00Z,26.4645,-82.1044,1.647,33.09,1111122 
SCCF RECON,ioos:station:SCCF:56:1,2019-03-14T14:00:00Z,26.4645,-82.1044,1.64,33.26,1111122 
SCCF RECON,ioos:station:SCCF:56:1,2019-03-14T15:00:00Z,26.4645,-82.1044,1.584,33.13,1111122 